Lebanon, NH

12:00 AM EST on December 14, 2019 (GMT -0500)
Lebanon Municipal

Weather History for KLEB - November, 2019

Change the Weather History Date:

Tuesday, November 12, 2019

  Actual Average Record
Temperature  
Mean Temperature 25 °F -  
Max Temperature 33 °F 45 °F 66 °F (2012)
Min Temperature 16 °F 30 °F 9 °F (1976)
Degree Days  
Heating Degree Days 40    
Moisture  
Dew Point 21 °F    
Average Humidity 75    
Maximum Humidity 89    
Minimum Humidity 52    
Precipitation  
Precipitation 0.13 in - - ()
Sea Level Pressure  
Sea Level Pressure 29.82 in    
Wind  
Wind Speed 4 mph ()    
Max Wind Speed 16 mph    
Max Gust Speed 24 mph    
Visibility 6.2 miles    
Events Fog , Rain , Snow    
Averages and records for this station are not official NWS values.
T = Trace of Precipitation, MM = Missing Value Source: Averaged Metar Reports

Daily Weather History Graph

Daily Weather History Graph

Search for Another Location

Airport or City:

Astronomy

Nov. 12, 2019 Rise Set
Actual Time 6:38 AM EST 4:27 PM EST
Civil Twilight 6:08 AM EST 4:57 PM EST
Nautical Twilight 5:33 AM EST 5:32 PM EST
Astronomical Twilight 5:00 AM EST 6:06 PM EST
Moon 4:53 PM EST (11/12) 6:25 AM EST (11/12)
Length of Visible Light 10h 49m
Length of Day
9h 48m
Full, 100% of the Moon is Illuminated
Nov 12
Full
Nov 19
Last Quarter
Nov 26
New
Dec 4
First Quarter
Dec 12
Full

Hourly Weather History & Observations

Time (EST) Temp. Windchill Dew Point Humidity Pressure Visibility Wind Dir Wind Speed Gust Speed Precip Events Conditions
12:24 AM 30.9 °F 26.2 °F 28.0 °F 89% 29.86 in 2.5 mi North 4.6 mph - N/A   Overcast
12:34 AM 30.9 °F 27.5 °F 28.0 °F 89% 29.85 in 3.0 mi North 3.5 mph - N/A   Overcast
12:53 AM 30.9 °F 27.5 °F 28.0 °F 89% 29.87 in 4.0 mi NW 3.5 mph - N/A   Overcast
1:53 AM 32.0 °F - 28.0 °F 85% 29.83 in 4.0 mi Calm Calm - N/A   Overcast
2:53 AM 32.0 °F - 27.0 °F 82% 29.78 in 3.0 mi Calm Calm - N/A   Haze
3:01 AM 32.0 °F - 28.0 °F 85% 29.75 in 2.5 mi Calm Calm - N/A   Overcast
3:53 AM 32.0 °F - 28.0 °F 85% 29.75 in 2.0 mi Calm Calm - N/A   Overcast
4:38 AM 32.0 °F - 28.9 °F 88% 29.71 in 3.0 mi Calm Calm - 0.01 in Rain Light Freezing Rain
4:46 AM 32.0 °F 27.5 °F 28.9 °F 88% 29.71 in 4.0 mi South 4.6 mph - 0.01 in Rain Light Freezing Rain
4:53 AM 32.0 °F - 28.9 °F 88% 29.73 in 4.0 mi Calm Calm - 0.01 in Rain Light Freezing Rain
5:44 AM 33.1 °F - 28.9 °F 85% 29.67 in 4.0 mi Calm Calm - 0.03 in Rain Light Rain
5:53 AM 33.1 °F - 28.9 °F 85% 29.69 in 5.0 mi Calm Calm - 0.03 in Rain Light Rain
6:05 AM 33.1 °F 30.0 °F 28.9 °F 85% 29.66 in 6.0 mi NW 3.5 mph - 0.00 in Rain Light Rain
6:36 AM 33.1 °F - 30.0 °F 89% 29.67 in 5.0 mi Calm Calm - 0.00 in Rain Light Freezing Rain
6:53 AM 33.1 °F - 30.0 °F 89% 29.72 in 5.0 mi Calm Calm - 0.00 in Rain Light Freezing Rain
7:27 AM 33.1 °F 30.0 °F 28.9 °F 85% 29.70 in 7.0 mi NW 3.5 mph - 0.03 in Rain Light Freezing Rain
7:41 AM 33.1 °F 26.9 °F 28.0 °F 82% 29.71 in 3.0 mi WNW 6.9 mph - 0.03 in Snow Light Snow
7:53 AM 33.1 °F 28.7 °F 28.0 °F 82% 29.75 in 1.0 mi NW 4.6 mph - 0.04 in Snow Light Snow
8:41 AM 32.0 °F 26.4 °F 27.0 °F 82% 29.74 in 0.8 mi NNW 5.8 mph - 0.02 in Snow Light Snow
8:50 AM 30.2 °F 24.3 °F 26.6 °F 86% 29.74 in 0.5 mi NW 5.8 mph - 0.03 in Fog , Snow Snow
8:53 AM 30.9 °F 27.5 °F 27.0 °F 85% 29.77 in 0.5 mi Variable 3.5 mph - 0.03 in Fog , Snow Snow
9:09 AM 30.9 °F 22.8 °F 26.1 °F 82% 29.75 in 1.0 mi NW 9.2 mph - 0.01 in Snow Light Snow
9:45 AM 30.0 °F 22.4 °F 25.0 °F 82% 29.77 in 1.2 mi NNW 8.1 mph - 0.02 in Snow Light Snow
9:53 AM 30.0 °F 23.2 °F 25.0 °F 82% 29.79 in 1.2 mi NNW 6.9 mph - 0.02 in Snow Light Snow
10:08 AM 28.9 °F 19.2 °F 21.9 °F 75% 29.78 in 4.0 mi NNW 11.5 mph - 0.00 in Snow Light Snow
10:39 AM 28.0 °F 18.1 °F 21.9 °F 78% 29.79 in 10.0 mi NNW 11.5 mph - 0.00 in   Overcast
10:53 AM 28.0 °F 20.0 °F 21.0 °F 75% 29.83 in 10.0 mi North 8.1 mph - 0.00 in   Overcast
11:04 AM 27.0 °F 18.0 °F 19.0 °F 72% 29.79 in 10.0 mi North 9.2 mph 18.4 mph N/A   Overcast
11:12 AM 27.0 °F 16.7 °F 18.0 °F 69% 29.79 in 10.0 mi NNW 11.5 mph - N/A   Overcast
11:48 AM 26.6 °F 18.2 °F 17.6 °F 69% 29.79 in 10.0 mi NW 8.1 mph - N/A   Overcast
11:53 AM 26.1 °F 14.5 °F 18.0 °F 71% 29.82 in 10.0 mi NW 13.8 mph 19.6 mph N/A   Overcast
12:53 PM 27.0 °F 17.3 °F 18.0 °F 69% 29.84 in 10.0 mi NNW 10.4 mph - N/A   Overcast
1:53 PM 27.0 °F 18.7 °F 17.1 °F 66% 29.86 in 10.0 mi NW 8.1 mph - N/A   Mostly Cloudy
2:05 PM 27.0 °F 18.7 °F 17.1 °F 66% 29.84 in 10.0 mi NW 8.1 mph - N/A   Mostly Cloudy
2:33 PM 27.0 °F 19.5 °F 16.0 °F 63% 29.85 in 10.0 mi Variable 6.9 mph 17.3 mph N/A   Mostly Cloudy
2:53 PM 27.0 °F 17.3 °F 17.1 °F 66% 29.89 in 10.0 mi NW 10.4 mph 17.3 mph N/A   Mostly Cloudy
3:10 PM 27.0 °F 17.3 °F 17.1 °F 66% 29.86 in 10.0 mi NW 10.4 mph - N/A   Mostly Cloudy
3:53 PM 27.0 °F 20.5 °F 16.0 °F 63% 29.90 in 10.0 mi NNW 5.8 mph 20.7 mph N/A   Mostly Cloudy
4:53 PM 26.1 °F 19.4 °F 14.0 °F 60% 29.92 in 10.0 mi NW 5.8 mph - N/A   Mostly Cloudy
5:53 PM 25.0 °F 16.3 °F 12.9 °F 60% 29.94 in 10.0 mi NW 8.1 mph - N/A   Overcast
6:53 PM 23.0 °F 10.1 °F 10.0 °F 58% 29.97 in 10.0 mi NW 15.0 mph 24.2 mph N/A   Overcast
7:53 PM 21.0 °F 10.6 °F 7.0 °F 55% 29.99 in 10.0 mi WNW 9.2 mph 18.4 mph N/A   Partly Cloudy
8:53 PM 19.0 °F 10.0 °F 3.9 °F 52% 30.01 in 10.0 mi WNW 6.9 mph - N/A   Clear
9:53 PM 18.0 °F 3.1 °F 3.0 °F 52% 30.02 in 10.0 mi WNW 16.1 mph 21.9 mph N/A   Clear
10:53 PM 17.1 °F 5.0 °F 3.0 °F 54% 30.04 in 10.0 mi NW 10.4 mph 17.3 mph N/A   Partly Cloudy
11:53 PM 16.0 °F 6.3 °F 1.0 °F 52% 30.06 in 10.0 mi WNW 6.9 mph - N/A   Clear